Regional Weather Roundup
Issued by NWS

Home | Current Version | Previous Version | Text Only | Print | Product List | Glossary On
Versions: 1 2 3 4 5 6 7 8 9 10 11 12 13 14 15 16 17 18 19 20 21 22 23 24 25 26 27 28 29 30 31 32 33 34 35 36 37 38 39 40 41 42 43 44 45 46 47 48 49 50
000
ASUS43 KTOP 111259
RWRKS

WEATHER ROUNDUP FOR KANSAS
NATIONAL WEATHER SERVICE GOODLAND KS
800 AM CDT FRI JUL 11 2014

NOTE:  "FAIR" INDICATES FEW OR NO CLOUDS BELOW 12,000 FEET WITH NO
SIGNIFICANT WEATHER AND/OR OBSTRUCTIONS TO VISIBILITY.

KSZ001>006-013>018-027>032-041>047-111400-
NORTHWEST KANSAS

CITY           SKY/WX    TMP DP  RH WIND       PRES   REMARKS
GOODLAND       MOSUNNY   67  56  67 CALM      30.01R
HAYS           MOSUNNY  N/A N/A N/A S3        29.96R
HILL CITY      PTSUNNY   71  61  70 W3        29.96R
RUSSELL        SUNNY     71  67  87 S12       29.94S
$$

KSZ061>065-074>080-084>089-111400-
SOUTHWEST KANSAS

CITY           SKY/WX    TMP DP  RH WIND       PRES   REMARKS
DODGE CITY     SUNNY     69  56  62 S9        30.02S
ELKHART          N/A     75  53  46 SW14        N/A
GARDEN CITY    SUNNY     69  55  60 S6        30.01S
GREAT BEND     SUNNY     72  61  68 S13       29.96F
LIBERAL        SUNNY     72  54  53 S12       30.06S
$$

KSZ066>073-081>083-090>101-111400-
SOUTHEAST KANSAS

CITY           SKY/WX    TMP DP  RH WIND       PRES   REMARKS
CHANUTE        MOSUNNY   73  67  81 S13G21    30.06S
COFFEYVILLE    SUNNY     72  67  84 S9        30.07R
HUTCHINSON     SUNNY     73  66  78 S13       30.00S
MEDICINE LODGE   N/A     72  66  81 SE7       30.01S
NEWTON         SUNNY     70  63  78 S10       30.05R
PARSONS        SUNNY     72  66  81 S7        30.08S
WICHITA INTL   MOSUNNY   72  66  81 S13       30.02R
WICHITA JABRA  SUNNY     71  67  87 S13       30.02R
WINFIELD       SUNNY     73  70  90 S10       30.04S
$$

KSZ007>012-019>026-033>040-048>060-102>105-111400-
NORTHEAST KANSAS

CITY           SKY/WX    TMP DP  RH WIND       PRES   REMARKS
CONCORDIA      MOSUNNY   70  67  90 NW5       29.99R
EMPORIA        SUNNY     70  67  90 S14       30.03R
LAWRENCE       SUNNY     74  67  78 SE10      30.03F
MANHATTAN      SUNNY     74  67  78 S9        29.99S
OLATHE IND     MOSUNNY   71  66  84 SE12      30.06S
OLATHE EXE     PTSUNNY   70  66  87 S12       30.05F
SALINA         SUNNY     74  66  76 S16G22    29.96F
TOPEKA BILLARD SUNNY     74  68  81 S12       30.02S
TOPEKA FORBES  MOSUNNY   73  67  81 S12       30.02S
$$


USA.gov is the U.S. government's official web portal to all federal, state and local government web resources and services.